This is the latest recevied weather packets stored in our database for station/object NO9B. If no packets are shown the sender has not sent any weather packets the latest 10 day(s).
| Time | Temp. | Humidity | Pressure | Rain* | Wind** | Luminosity | Snow |
|---|---|---|---|---|---|---|---|
| 1787965801 | 22.78° C | 70% | 1020.2 hPa | 0 mm | - | 0 W/m² | - |
| 1787965496 | 23.33° C | 70% | 1020.3 hPa | 0 mm | - | 0 W/m² | - |
| 1787965196 | 23.33° C | 69% | 1020.2 hPa | 0 mm | - | 0 W/m² | - |
| 1787964890 | 23.33° C | 69% | 1020.3 hPa | 0 mm | - | 0 W/m² | - |
| 1787964586 | 23.89° C | 70% | 1020.1 hPa | 0 mm | - | 0 W/m² | - |
| 1787964280 | 23.89° C | 68% | 1020.1 hPa | 0 mm | - | 0 W/m² | - |
| 1787963980 | 24.44° C | 68% | 1020.2 hPa | 0 mm | - | 0 W/m² | - |
| 1787963675 | 24.44° C | 66% | 1020.3 hPa | 0 mm | - | 1 W/m² | - |
| 1787963375 | 24.44° C | 66% | 1020.3 hPa | 0 mm | - | 2 W/m² | - |
| 1787963071 | 25° C | 66% | 1020.2 hPa | 0 mm | - | 2 W/m² | - |
| 1787962769 | 25° C | 65% | 1020.3 hPa | 0 mm | - | 3 W/m² | - |
| 1787962469 | 25° C | 64% | 1020.5 hPa | 0 mm | - | 4 W/m² | - |
| 1787962167 | 25° C | 63% | 1020.6 hPa | 0 mm | - | 6 W/m² | - |
| 1787961862 | 25.56° C | 64% | 1020.4 hPa | 0 mm | - | 7 W/m² | - |
| 1787961560 | 25.56° C | 63% | 1020.4 hPa | 0 mm | - | 7 W/m² | - |
| 1787961256 | 25.56° C | 62% | 1020.4 hPa | 0 mm | - | 7 W/m² | - |
| 1787960955 | 25.56° C | 62% | 1020.4 hPa | 0 mm | - | 10 W/m² | - |
| 1787960650 | 26.11° C | 61% | 1020.5 hPa | 0 mm | - | 12 W/m² | - |
| 1787960349 | 26.11° C | 61% | 1020.5 hPa | 0 mm | - | 14 W/m² | - |
| 1787960044 | 26.11° C | 60% | 1020.2 hPa | 0 mm | - | 14 W/m² | - |
| 1787959738 | 26.11° C | 59% | 1020.4 hPa | 0 mm | - | 17 W/m² | - |
| 1787959434 | 26.67° C | 59% | 1020.2 hPa | 0 mm | - | 15 W/m² | - |
| 1787959128 | 26.67° C | 55% | 1020.4 hPa | 0 mm | - | 13 W/m² | - |
| 1787958824 | 26.67° C | 55% | 1020.1 hPa | 0 mm | - | 18 W/m² | - |
| 1787958519 | 26.67° C | 54% | 1020.2 hPa | 0 mm | - | 21 W/m² | - |
* Rain latest hour (hover to see other rain measurements)
** Current wind speed in m/s (hover to see current wind gust speed)